Weather History for Armstrong, ON

Change the Weather History Date:

Sunday, March 23, 2014

  Actual Average Record
Temperature  
Mean Temperature -4 °F -  
Max Temperature 19 °F - - ()
Min Temperature -28 °F - - ()
Degree Days  
Heating Degree Days 70    
Moisture  
Dew Point -17 °F    
Average Humidity 49    
Maximum Humidity 80    
Minimum Humidity 14    
Precipitation  
Precipitation 0.00 in - - ()
Sea Level Pressure  
Sea Level Pressure 30.33 in    
Wind  
Wind Speed 3 mph ()    
Max Wind Speed 12 mph    
Max Gust Speed -    
T = Trace of Precipitation, MM = Missing Value Source: Averaged Metar Reports

Daily Weather History Graph

Daily Weather History Graph

Search for Another Location

Airport:

Trip Planner

Search our weather history database for the weather conditions in past years. The results will help you decide how hot, cold, wet, or windy it might be!

Date:

Astronomy

Mar. 23, 2014 Rise Set
Actual Time 7:51 AM EDT 8:13 PM EDT
Civil Twilight 7:19 AM EDT 8:46 PM EDT
Nautical Twilight 6:40 AM EDT 9:24 PM EDT
Astronomical Twilight 6:00 AM EDT 10:05 PM EDT
Moon 2:59 AM EDT (3/23) 12:03 PM EDT (3/23)
Length of Visible Light 13h 26m
Length of Day
12h 21m
Waning Gibbous, 55% of the Moon is Illuminated
Mar 23
Waning Gibbous
Mar 23
Last Quarter
Mar 30
New
Apr 7
First Quarter
Apr 15
Full

Hourly Weather History & Observations

Time (EDT) Temp. Windchill Dew Point Humidity Pressure Visibility Wind Dir Wind Speed Gust Speed Precip Events Conditions
12:00 AM -12.1 °F - -19.5 °F 70% 30.35 in - NNW 2.3 mph - N/A   Unknown
1:00 AM -13.9 °F - -18.6 °F 80% 30.36 in - Calm Calm - N/A   Unknown
2:00 AM -16 °F - -21 °F 64% 30.36 in - Calm Calm - -  
2:00 AM -16.2 °F - -21.5 °F 77% 30.36 in - Calm Calm - N/A   Unknown
3:00 AM -20.2 °F - -26.3 °F 73% 30.37 in - Calm Calm - N/A   Unknown
4:00 AM -23.3 °F - -29.7 °F 72% 30.38 in - Calm Calm - 0.00 in   Unknown
5:00 AM -26 °F - -32 °F 56% 30.38 in - Calm Calm - -  
5:00 AM -26.0 °F - -32.4 °F 71% 30.38 in - Calm Calm - N/A   Unknown
6:00 AM -26.5 °F - -33.0 °F 71% 30.38 in - Calm Calm - N/A   Unknown
7:00 AM -27.8 °F - -34.2 °F 71% 30.38 in - NW 2.3 mph - N/A   Unknown
8:00 AM -25 °F - -30 °F 62% 30.39 in - Calm Calm - -  
8:00 AM -25.1 °F - -30.5 °F 76% 30.39 in - Calm Calm - N/A   Unknown
9:00 AM -17.5 °F - -22.5 °F 78% 30.39 in - NE 1.2 mph - N/A   Unknown
10:00 AM - - - N/A% 30.38 in - WNW 5.8 mph - N/A   Unknown
11:00 AM 4 °F - -11 °F 32% 30.36 in - WNW 10.4 mph - -  
11:00 AM - - - N/A% 30.36 in - WNW 11.5 mph - N/A   Unknown
12:00 PM 8.1 °F -4.3 °F -12.6 °F 39% 30.36 in - WNW 8.1 mph - N/A   Unknown
1:00 PM 10.8 °F 2.7 °F -12.5 °F 35% 30.35 in - WNW 4.6 mph - N/A   Unknown
2:00 PM 13 °F - -12 °F 17% 30.34 in - WNW 8.1 mph - -  
2:00 PM 12.9 °F 0.7 °F -11.7 °F 33% 30.34 in - West 9.2 mph - N/A   Unknown
3:00 PM 16.2 °F 5.5 °F -10.1 °F 31% 30.32 in - West 8.1 mph - N/A   Unknown
4:00 PM 18.3 °F 8.2 °F -9.6 °F 29% 30.30 in - West 8.1 mph - N/A   Unknown
5:00 PM 19 °F - -9 °F 14% 30.28 in - West 8.1 mph - -  
5:00 PM 19.4 °F 10.4 °F -9.0 °F 28% 30.28 in - West 6.9 mph - N/A   Unknown
6:00 PM 18.3 °F 7.3 °F -9.2 °F 29% 30.27 in - West 9.2 mph - N/A   Unknown
7:00 PM 17.6 °F 7.3 °F -8.7 °F 31% 30.26 in - West 8.1 mph - N/A   Unknown
8:00 PM 14 °F - -8 °F 21% 30.25 in - West 6.9 mph - -  
8:00 PM 13.8 °F 2.7 °F -8.1 °F 37% 30.25 in - West 8.1 mph - N/A   Unknown
9:00 PM 9.0 °F 0.6 °F -9.6 °F 43% 30.23 in - WSW 4.6 mph - N/A   Unknown
10:00 PM 5.4 °F -5.2 °F -10.1 °F 49% 30.22 in - WSW 5.8 mph - N/A   Unknown
11:00 PM 6 °F - -10 °F 30% 30.20 in - WSW 5.8 mph - -  
11:00 PM 6.4 °F -3.9 °F -10.5 °F 46% 30.20 in - WSW 5.8 mph - N/A   Unknown